When you browse on this site, cookies collect data to enhance your experience and personalize the content and advertising you see.
Visit our Privacy Policy to learn more. By continuing to use the site, you agree to this use of cookies and data.
  • In Österreich
  • Länderverzeichnis
  • Für 7 Tage
  • Wassertemperatur
  • Wetterkarte
  • News
  • Widgets
  • user-avatar
    Anmelden

    Stündliche Wetter Paratebueno

    Heute, 12 Dezember, Donnerstag

    Zeit Temperatur Niederschläge Wind Luftdruck Luftfeuchtigkeit
    00:00 +24°C° 0 mm 1 m/S 736 mmHg 80%
    01:00 +24°C° 0 mm 1 m/S 735 mmHg 80%
    02:00 +24°C° 0 mm 1 m/S 736 mmHg 80%
    03:00 +22°C° 0 mm 0 m/S 736 mmHg 80%
    04:00 +22°C° 0 mm 0 m/S 736 mmHg 80%
    05:00 +22°C° 0 mm 0 m/S 736 mmHg 80%
    06:00 +23°C° 0 mm 0 m/S 736 mmHg 79%
    07:00 +25°C° 0 mm 1 m/S 736 mmHg 78%
    08:00 +27°C° 0 mm 1 m/S 737 mmHg 73%
    09:00 +29°C° 0 mm 1 m/S 737 mmHg 67%
    10:00 +31°C° 0 mm 2 m/S 737 mmHg 61%
    11:00 +32°C° 0.1 mm 2 m/S 736 mmHg 60%
    12:00 +32°C° 0.1 mm 1 m/S 735 mmHg 59%
    13:00 +33°C° 0.1 mm 1 m/S 734 mmHg 58%
    14:00 +32°C° 0 mm 1 m/S 734 mmHg 60%
    15:00 +32°C° 0 mm 1 m/S 733 mmHg 62%
    16:00 +32°C° 0 mm 1 m/S 733 mmHg 64%
    17:00 +30°C° 0.1 mm 1 m/S 733 mmHg 68%
    18:00 +29°C° 0.1 mm 1 m/S 734 mmHg 72%
    19:00 +27°C° 0.1 mm 1 m/S 734 mmHg 76%
    20:00 +27°C° 0.6 mm 1 m/S 735 mmHg 80%
    21:00 +26°C° 0.6 mm 1 m/S 736 mmHg 84%
    22:00 +26°C° 0.6 mm 1 m/S 736 mmHg 87%
    23:00 +25°C° 1.5 mm 1 m/S 736 mmHg 89%

    Morgen, 13 Dezember, Freitag

    Zeit Temperatur Niederschläge Wind Luftdruck Luftfeuchtigkeit
    00:00 +25°C° 1.5 mm 1 m/S 735 mmHg 91%
    01:00 +24°C° 1.5 mm 1 m/S 735 mmHg 93%
    02:00 +24°C° 0.5 mm 1 m/S 735 mmHg 94%
    03:00 +24°C° 0.5 mm 1 m/S 735 mmHg 94%
    04:00 +24°C° 0.5 mm 1 m/S 735 mmHg 94%
    05:00 +24°C° 0.1 mm 1 m/S 735 mmHg 93%
    06:00 +23°C° 0.1 mm 0 m/S 736 mmHg 92%
    07:00 +23°C° 0.1 mm 0 m/S 736 mmHg 91%
    08:00 +27°C° 0.2 mm 1 m/S 736 mmHg 86%
    09:00 +28°C° 0.2 mm 1 m/S 737 mmHg 80%
    10:00 +29°C° 0.2 mm 2 m/S 737 mmHg 75%
    11:00 +30°C° 0.3 mm 2 m/S 736 mmHg 74%
    12:00 +30°C° 0.3 mm 1 m/S 735 mmHg 73%
    13:00 +31°C° 0.3 mm 1 m/S 734 mmHg 72%
    14:00 +30°C° 1.3 mm 1 m/S 734 mmHg 76%
    15:00 +30°C° 1.3 mm 1 m/S 733 mmHg 80%
    16:00 +29°C° 1.3 mm 1 m/S 733 mmHg 85%
    17:00 +28°C° 0.6 mm 1 m/S 734 mmHg 87%
    18:00 +27°C° 0.6 mm 1 m/S 734 mmHg 88%
    19:00 +26°C° 0.6 mm 1 m/S 735 mmHg 90%
    20:00 +25°C° 1.3 mm 1 m/S 735 mmHg 92%
    21:00 +25°C° 1.3 mm 1 m/S 736 mmHg 93%
    22:00 +25°C° 1.3 mm 1 m/S 737 mmHg 95%
    23:00 +25°C° 0.5 mm 1 m/S 736 mmHg 94%

    übermorgen, 14 Dezember, Samstag

    Zeit Temperatur Niederschläge Wind Luftdruck Luftfeuchtigkeit
    00:00 +25°C° 0.5 mm 1 m/S 736 mmHg 94%
    01:00 +25°C° 0.5 mm 1 m/S 735 mmHg 94%
    02:00 +25°C° 0 mm 1 m/S 735 mmHg 93%
    03:00 +24°C° 0 mm 1 m/S 735 mmHg 92%
    04:00 +22°C° 0 mm 0 m/S 735 mmHg 92%
    05:00 +23°C° 0 mm 0 m/S 736 mmHg 91%
    06:00 +23°C° 0 mm 0 m/S 736 mmHg 90%
    07:00 +23°C° 0 mm 0 m/S 737 mmHg 90%
    08:00 +27°C° 0 mm 1 m/S 737 mmHg 84%
    09:00 +28°C° 0 mm 1 m/S 737 mmHg 79%
    10:00 +30°C° 0 mm 1 m/S 738 mmHg 74%
    11:00 +30°C° 0.1 mm 1 m/S 737 mmHg 71%
    12:00 +31°C° 0.1 mm 1 m/S 736 mmHg 68%
    13:00 +31°C° 0.1 mm 1 m/S 735 mmHg 66%
    14:00 +31°C° 0.4 mm 1 m/S 734 mmHg 68%
    15:00 +31°C° 0.4 mm 1 m/S 734 mmHg 71%
    16:00 +31°C° 0.4 mm 1 m/S 733 mmHg 74%
    17:00 +29°C° 0.2 mm 1 m/S 734 mmHg 78%
    18:00 +27°C° 0.2 mm 1 m/S 735 mmHg 83%
    19:00 +26°C° 0.2 mm 1 m/S 735 mmHg 88%
    20:00 +25°C° 1.5 mm 1 m/S 736 mmHg 90%
    21:00 +25°C° 1.5 mm 1 m/S 736 mmHg 92%
    22:00 +25°C° 1.5 mm 1 m/S 737 mmHg 94%
    23:00 +25°C° 1.9 mm 1 m/S 737 mmHg 94%

    15 Dezember, Sonntag

    Zeit Temperatur Niederschläge Wind Luftdruck Luftfeuchtigkeit
    00:00 +24°C° 1.9 mm 1 m/S 736 mmHg 95%
    01:00 +24°C° 1.9 mm 1 m/S 736 mmHg 96%
    02:00 +24°C° 0.8 mm 1 m/S 736 mmHg 95%
    03:00 +24°C° 0.8 mm 1 m/S 736 mmHg 95%
    04:00 +24°C° 0.8 mm 1 m/S 736 mmHg 95%
    05:00 +24°C° 0.1 mm 1 m/S 736 mmHg 93%
    06:00 +25°C° 0.1 mm 1 m/S 737 mmHg 92%
    07:00 +25°C° 0.1 mm 1 m/S 737 mmHg 91%
    08:00 +24°C° 0.1 mm 0 m/S 738 mmHg 86%
    09:00 +26°C° 0.1 mm 0 m/S 738 mmHg 81%
    10:00 +27°C° 0.1 mm 0 m/S 738 mmHg 76%
    11:00 +27°C° 0.9 mm 0 m/S 737 mmHg 78%
    12:00 +29°C° 0.9 mm 1 m/S 737 mmHg 80%
    13:00 +30°C° 0.9 mm 1 m/S 736 mmHg 81%
    14:00 +29°C° 1.8 mm 1 m/S 735 mmHg 84%
    15:00 +29°C° 1.8 mm 1 m/S 735 mmHg 87%
    16:00 +26°C° 1.8 mm 0 m/S 735 mmHg 90%
    17:00 +27°C° 1.2 mm 1 m/S 735 mmHg 90%
    18:00 +26°C° 1.2 mm 1 m/S 736 mmHg 91%
    19:00 +25°C° 1.2 mm 1 m/S 736 mmHg 92%
    20:00 +25°C° 0.9 mm 1 m/S 737 mmHg 92%
    21:00 +25°C° 0.9 mm 1 m/S 737 mmHg 93%
    22:00 +25°C° 0.9 mm 1 m/S 738 mmHg 93%
    23:00 +25°C° 0.2 mm 1 m/S 737 mmHg 93%

    16 Dezember, Montag

    Zeit Temperatur Niederschläge Wind Luftdruck Luftfeuchtigkeit
    00:00 +23°C° 0.2 mm 0 m/S 737 mmHg 93%
    01:00 +23°C° 0.2 mm 0 m/S 736 mmHg 92%
    02:00 +22°C° 0 mm 0 m/S 736 mmHg 92%
    03:00 +22°C° 0 mm 0 m/S 736 mmHg 92%
    04:00 +22°C° 0 mm 0 m/S 736 mmHg 92%
    05:00 +22°C° 0 mm 0 m/S 736 mmHg 91%
    06:00 +23°C° 0 mm 0 m/S 737 mmHg 90%
    07:00 +23°C° 0 mm 0 m/S 737 mmHg 90%
    08:00 +27°C° 0 mm 1 m/S 737 mmHg 83%
    09:00 +29°C° 0 mm 1 m/S 737 mmHg 75%
    10:00 +30°C° 0 mm 2 m/S 738 mmHg 68%
    11:00 +31°C° 0 mm 2 m/S 737 mmHg 68%
    12:00 +31°C° 0 mm 2 m/S 736 mmHg 67%
    13:00 +32°C° 0 mm 2 m/S 735 mmHg 66%
    14:00 +32°C° 0 mm 2 m/S 735 mmHg 66%
    15:00 +32°C° 0 mm 1 m/S 734 mmHg 67%
    16:00 +32°C° 0 mm 1 m/S 733 mmHg 67%
    17:00 +30°C° 0 mm 1 m/S 734 mmHg 72%
    18:00 +28°C° 0 mm 1 m/S 734 mmHg 77%
    19:00 +26°C° 0 mm 1 m/S 735 mmHg 82%
    20:00 +26°C° 0 mm 1 m/S 735 mmHg 83%
    21:00 +26°C° 0 mm 1 m/S 736 mmHg 83%
    22:00 +25°C° 0 mm 1 m/S 736 mmHg 84%
    23:00 +25°C° 0.1 mm 1 m/S 736 mmHg 85%

    17 Dezember, Dienstag

    Zeit Temperatur Niederschläge Wind Luftdruck Luftfeuchtigkeit
    00:00 +25°C° 0.1 mm 1 m/S 736 mmHg 86%
    01:00 +24°C° 0.1 mm 1 m/S 736 mmHg 87%
    02:00 +24°C° 0 mm 1 m/S 735 mmHg 87%
    03:00 +24°C° 0 mm 1 m/S 735 mmHg 87%
    04:00 +23°C° 0 mm 1 m/S 735 mmHg 87%
    05:00 +24°C° 0 mm 1 m/S 735 mmHg 85%
    06:00 +24°C° 0 mm 1 m/S 736 mmHg 83%
    07:00 +25°C° 0 mm 1 m/S 736 mmHg 82%
    08:00 +27°C° 0 mm 1 m/S 736 mmHg 75%
    09:00 +29°C° 0 mm 2 m/S 736 mmHg 69%
    10:00 +31°C° 0 mm 3 m/S 737 mmHg 62%
    11:00 +33°C° 0 mm 3 m/S 736 mmHg 61%
    12:00 +33°C° 0 mm 3 m/S 735 mmHg 59%
    13:00 +34°C° 0 mm 3 m/S 734 mmHg 58%
    14:00 +34°C° 0.1 mm 2 m/S 733 mmHg 62%
    15:00 +32°C° 0.1 mm 2 m/S 733 mmHg 66%
    16:00 +32°C° 0.1 mm 1 m/S 732 mmHg 70%
    17:00 +30°C° 0.2 mm 1 m/S 733 mmHg 74%
    18:00 +28°C° 0.2 mm 1 m/S 733 mmHg 78%
    19:00 +27°C° 0.2 mm 1 m/S 734 mmHg 81%
    20:00 +26°C° 0.1 mm 1 m/S 734 mmHg 83%
    21:00 +25°C° 0.1 mm 1 m/S 735 mmHg 84%
    22:00 +25°C° 0.1 mm 1 m/S 736 mmHg 85%
    23:00 +25°C° 0 mm 1 m/S 735 mmHg 85%
    Mehr zeigen